"1998/01/01", 7.1, 7.4, 6.9
"1998/01/02", 6.9, 7.0, 6.8
"1998/01/03", 7.0, 7.4, 6.7
"1998/01/04", 6.8, 6.9, 6.6
"1998/01/05", 6.7, 7.2, 6.5
"1998/01/06", 6.4, 6.8, 6.0
"1998/01/07", 6.2, 6.4, 5.9
"1998/01/08", 5.3, 5.9, 4.8
"1998/01/09", 5.2, 5.6, 4.7
"1998/01/10", 5.3, 5.8, 4.8
"1998/01/11", 5.2, 5.4, 5.0
"1998/01/12", 4.8, 5.2, 4.5
"1998/01/13", 4.7, 5.6, 3.9
"1998/01/14", 4.8, 5.3, 4.5
"1998/01/15", 4.7, 4.8, 4.4
"1998/01/16", 4.5, 5.1, 4.2
"1998/01/17", 4.8, 5.6, 4.3
"1998/01/18", 5.2, 5.6, 4.9
"1998/01/19", 5.1, 5.4, 4.8
"1998/01/20", 4.8, 5.3, 4.2
"1998/01/21", 4.7, 5.4, 4.2
"1998/01/22", 4.6, 5.2, 4.0
"1998/01/23", 4.5, 4.7, 4.4
"1998/01/24", 4.4, 5.6, 3.8
"1998/01/25", 3.9, 4.7, 3.2
"1998/01/26", 4.3, 5.3, 3.8
"1998/01/27", 4.1, 4.7, 3.8
"1998/01/28", 4.0, 4.5, 3.7
"1998/01/29", 3.8, 4.3, 3.6
"1998/01/30", 3.9, 4.3, 3.4
"1998/01/31", 4.1, 5.3, 3.5
"1998/02/01", 4.1, 4.5, 3.5
"1998/02/02", 4.3, 4.9, 3.7
"1998/02/03", 4.6, 5.1, 4.1
"1998/02/04", 4.8, 5.6, 4.5
"1998/02/05", 4.8, 5.5, 3.9
"1998/02/06", 4.8, 6.1, 3.8
"1998/02/07", 4.8, 5.0, 4.6
"1998/02/08", 5.3, 6.1, 4.8
"1998/02/09", 4.8, 6.0, 4.4
"1998/02/10", 4.4, 4.7, 3.4
"1998/02/11", 4.0, 4.7, 3.1
"1998/02/12", 4.5, 5.1, 4.1
"1998/02/13", 5.2, 6.2, 4.4
"1998/02/14", 5.8, 6.8, 5.3
"1998/02/15", 5.3, 5.7, 5.0
"1998/02/16", 5.6, 6.3, 4.8
"1998/02/17", 5.6, 6.0, 5.3
"1998/02/18", 5.7, 6.3, 4.9
"1998/02/19", 6.2, 7.1, 5.3
"1998/02/20", 6.2, 6.5, 5.8
"1998/02/21", 5.9, 6.0, 5.7
"1998/02/22", 5.9, 6.7, 5.4
"1998/02/23", 6.6, 7.5, 5.5
"1998/02/24", 6.4, 6.8, 6.0
"1998/02/25", 5.9, 6.3, 5.7
"1998/02/26", 5.9, 6.1, 5.8
"1998/02/27", 7.2, 9.6, 6.0
"1998/02/28", 7.0, 7.4, 6.4
"1998/03/01", 6.5, 6.9, 6.2
"1998/03/02", 7.0, 9.0, 6.0
"1998/03/03", 7.3, 9.1, 6.3
"1998/03/04", 8.4,10.2, 6.9
"1998/03/05", 7.1, 8.0, 6.6
"1998/03/06", 7.2, 7.8, 6.5
"1998/03/07", 7.4, 8.6, 6.9
"1998/03/08", 7.7, 9.0, 6.3
"1998/03/09", 8.3, 9.5, 7.4
"1998/03/10", 7.7, 8.2, 7.2
"1998/03/11", 7.8, 8.7, 7.0
"1998/03/12", 7.9, 8.4, 7.5
"1998/03/13", 8.7, 9.9, 8.2
"1998/03/14", 8.8,10.3, 8.0
"1998/03/15", 8.5, 9.6, 7.6
"1998/03/16", 8.3, 9.1, 7.1
"1998/03/17", 8.6, 9.3, 8.0
"1998/03/18", 8.3, 9.7, 7.4
"1998/03/19", 8.8,10.1, 7.9
"1998/03/20", 9.9,11.2, 9.4
"1998/03/21", 9.5,10.2, 9.0
"1998/03/22", 9.1, 9.4, 8.8
"1998/03/23", 9.6,11.1, 8.7
"1998/03/24", 9.9,11.4, 9.0
"1998/03/25", 9.8,10.9, 9.2
"1998/03/26",10.9,13.6, 9.5
"1998/03/27",10.6,11.5,10.0
"1998/03/28",11.6,13.5,10.6
"1998/03/29",11.7,14.2,10.8
"1998/03/30",12.5,14.4,10.8
"1998/03/31",11.7,12.6,11.3
"1998/04/01",11.1,11.4,10.9
"1998/04/02",10.4,11.0,10.0
"1998/04/03",10.8,13.4, 9.7
"1998/04/04",11.1,12.3,10.2
"1998/04/05",12.4,14.2,10.8
"1998/04/06",12.7,13.4,12.3
"1998/04/07"," *"," *"," *"
"1998/04/08"," *"," *"," *"
"1998/04/09",11.7,12.3,10.9
"1998/04/10",12.9,15.6,11.4
"1998/04/11",13.7,16.4,12.1
"1998/04/12",12.7,14.1,12.2
"1998/04/13",14.4,15.7,13.1
"1998/04/14",15.8,16.5,15.2
"1998/04/15",14.9,15.7,14.0
"1998/04/16",14.3,14.8,13.7
"1998/04/17",14.0,14.3,13.6
"1998/04/18",15.2,18.7,13.6
"1998/04/19",16.1,18.5,14.3
"1998/04/20",16.9,19.0,14.9
"1998/04/21",16.2,17.2,15.5
"1998/04/22",16.4,17.2,15.8
"1998/04/23",17.4,17.9,16.5
"1998/04/24",17.9,18.5,17.5
"1998/04/25",18.2,18.6,17.9
"1998/04/26",17.3,18.0,16.7
"1998/04/27",16.2,16.7,15.8
"1998/04/28",16.7,17.7,15.8
"1998/04/29",18.0,20.1,16.7
"1998/04/30",18.1,19.1,17.6
"1998/05/01",17.9,18.6,17.4
"1998/05/02",19.1,20.4,17.9
"1998/05/03",19.9,20.8,18.9
"1998/05/04",18.3,19.0,17.7
"1998/05/05",18.1,18.9,17.5
"1998/05/06",18.5,19.7,17.6
"1998/05/07",20.3,23.0,18.3
"1998/05/08",20.4,21.6,19.3
"1998/05/09",19.9,20.3,19.5
"1998/05/10",20.2,21.3,19.4
"1998/05/11",19.0,19.7,18.6
"1998/05/12",18.3,18.6,18.1
"1998/05/13",19.1,19.9,18.3
"1998/05/14",19.1,19.9,18.8
"1998/05/15",19.5,20.7,18.7
"1998/05/16",19.7,21.2,18.6
"1998/05/17",20.0,20.6,19.6
"1998/05/18",20.0,20.7,19.5
"1998/05/19",20.2,20.7,19.9
"1998/05/20",21.7,24.2,19.9
"1998/05/21",22.3,24.5,20.8
"1998/05/22",21.4,21.9,20.8
"1998/05/23",21.9,23.1,20.6
"1998/05/24",22.2,22.4,21.7
"1998/05/25",22.5,23.6,21.9
"1998/05/26",21.1,22.0,20.2
"1998/05/27",20.6,21.5,19.4
"1998/05/28",21.1,22.0,20.5
"1998/05/29",21.2,21.4,20.8
"1998/05/30",22.0,22.9,21.4
"1998/05/31",22.2,23.9,21.1
"1998/06/01",22.4,24.0,21.5
"1998/06/02",21.8,22.0,21.2
"1998/06/03",20.5,21.1,19.9
"1998/06/04",21.3,23.7,20.0
"1998/06/05",20.8,21.3,20.4
"1998/06/06",19.5,20.4,18.8
"1998/06/07",18.2,18.8,17.4
"1998/06/08",18.3,19.5,17.3
"1998/06/09",18.8,19.3,18.3
"1998/06/10",18.6,18.9,18.5
"1998/06/11",19.2,20.0,18.6
"1998/06/12",19.1,19.6,18.7
"1998/06/13",19.2,19.4,19.0
"1998/06/14",19.1,19.3,18.8
"1998/06/15",19.5,20.3,19.1
"1998/06/16",21.0,23.0,19.3
"1998/06/17",20.8,21.3,20.2
"1998/06/18",21.2,21.9,20.6
"1998/06/19",21.1,21.5,20.9
"1998/06/20",23.5,25.5,21.5
"1998/06/21",23.4,24.1,22.6
"1998/06/22",21.4,22.6,20.2
"1998/06/23",19.9,20.2,19.7
"1998/06/24",20.6,23.3,19.6
"1998/06/25",20.6,21.1,20.2
"1998/06/26",21.4,22.4,20.5
"1998/06/27",22.1,22.8,21.3
"1998/06/28",23.3,24.6,22.1
"1998/06/29",24.7,26.9,23.6
"1998/06/30",24.0,24.9,23.3
"1998/07/01",24.8,26.6,23.7
"1998/07/02",24.4,25.6,23.5
"1998/07/03",25.3,28.1,23.9
"1998/07/04",26.3,28.5,24.1
"1998/07/05",26.0,26.3,25.7
"1998/07/06",26.4,27.2,25.4
"1998/07/07",26.7,27.6,25.9
"1998/07/08",27.2,29.1,26.2
"1998/07/09",27.8,29.7,26.6
"1998/07/10",27.4,27.9,27.0
"1998/07/11",27.3,27.9,26.8
"1998/07/12",25.6,26.9,24.5
"1998/07/13",24.3,24.7,23.8
"1998/07/14",24.2,25.1,23.5
"1998/07/15",23.3,23.9,22.7
"1998/07/16",22.4,22.8,21.9
"1998/07/17",21.5,21.9,21.2
"1998/07/18",22.4,23.6,21.3
"1998/07/19",23.0,23.9,22.1
"1998/07/20",23.1,23.9,22.7
"1998/07/21",22.6,22.7,22.5
"1998/07/22",22.3,22.7,21.8
"1998/07/23",22.6,23.6,21.9
"1998/07/24",23.4,24.4,22.8
"1998/07/25",23.6,23.9,23.1
"1998/07/26",24.5,25.4,23.7
"1998/07/27",25.5,27.3,24.5
"1998/07/28",25.7,26.7,24.5
"1998/07/29",26.3,27.8,25.4
"1998/07/30",25.6,26.6,25.2
"1998/07/31",25.6,26.5,24.9
"1998/08/01",26.4,27.8,25.2
"1998/08/02",26.1,26.6,25.6
"1998/08/03",27.6,30.4,25.6
"1998/08/04",26.8,27.1,26.6
"1998/08/05",27.8,30.8,26.3
"1998/08/06",26.9,27.3,26.3
"1998/08/07",26.7,28.1,26.2
"1998/08/08",26.1,26.6,25.5
"1998/08/09",25.2,25.5,24.9
"1998/08/10",25.6,26.8,24.8
"1998/08/11",26.3,27.5,25.2
"1998/08/12",27.0,28.0,26.5
"1998/08/13",27.2,29.5,26.1
"1998/08/14",27.2,29.1,26.5
"1998/08/15",26.5,26.9,26.1
"1998/08/16",26.6,27.5,26.0
"1998/08/17",27.1,28.7,26.4
"1998/08/18",26.5,26.8,26.2
"1998/08/19",26.4,27.0,26.1
"1998/08/20",27.0,28.4,26.3
"1998/08/21",26.8,27.4,26.3
"1998/08/22",26.2,26.7,25.7
"1998/08/23",26.2,26.9,25.5
"1998/08/24",27.0,28.8,26.0
"1998/08/25",27.2,28.0,26.4
"1998/08/26",27.4,28.1,27.2
"1998/08/27",27.4,27.8,27.1
"1998/08/28",27.1,27.3,26.9
"1998/08/29",26.9,27.1,26.7
"1998/08/30",26.7,27.0,26.2
"1998/08/31",25.8,26.2,25.4
"1998/09/01",25.0,25.4,24.5
"1998/09/02",24.7,25.1,24.4
"1998/09/03",24.8,25.5,24.4
"1998/09/04",24.6,25.0,24.3
"1998/09/05",24.7,25.5,24.2
"1998/09/06",24.7,25.5,24.1
"1998/09/07",24.2,24.5,23.8
"1998/09/08",23.9,24.1,23.6
"1998/09/09",24.0,24.6,23.6
"1998/09/10",24.5,25.1,23.9
"1998/09/11",24.4,24.8,24.2
"1998/09/12",24.4,24.7,24.0
"1998/09/13",25.0,26.8,24.2
"1998/09/14",25.0,25.7,24.6
"1998/09/15",25.3,26.3,24.7
"1998/09/16",24.8,25.3,24.2
"1998/09/17",24.5,25.0,24.1
"1998/09/18",24.2,24.3,24.1
"1998/09/19",24.3,24.7,24.2
"1998/09/20",24.6,24.9,24.3
"1998/09/21",25.0,25.2,24.7
"1998/09/22",25.2,25.5,24.9
"1998/09/23",25.1,25.2,24.9
"1998/09/24",24.7,24.9,24.6
"1998/09/25",24.7,25.1,24.1
"1998/09/26",24.6,24.9,24.1
"1998/09/27",23.6,24.1,23.1
"1998/09/28",23.0,23.2,22.7
"1998/09/29",22.7,22.8,22.6
"1998/09/30",22.3,22.5,22.1
"1998/10/01",22.5,22.5,22.4
"1998/10/02",23.7,25.3,22.4
"1998/10/03",23.8,24.4,23.4
"1998/10/04",24.0,25.7,23.0
"1998/10/05",22.6,23.4,22.2
"1998/10/06",21.9,22.2,21.8
"1998/10/07",22.0,22.3,21.6
"1998/10/08",22.4,23.6,21.9
"1998/10/09",22.8,24.7,21.7
"1998/10/10",22.6,23.9,22.0
"1998/10/11",21.8,22.0,21.4
"1998/10/12",21.7,22.7,21.0
"1998/10/13",21.3,21.9,21.0
"1998/10/14",21.3,21.7,20.8
"1998/10/15",21.6,22.0,21.1
"1998/10/16",21.9,22.3,21.7
"1998/10/17",21.1,21.6,20.6
"1998/10/18",21.1,22.2,20.5
"1998/10/19",21.8,22.4,21.3
"1998/10/20"," *"," *"," *"
"1998/10/21",19.7,20.7,19.1
"1998/10/22",18.8,19.1,18.3
"1998/10/23",18.0,18.3,17.9
"1998/10/24",17.6,18.0,17.3
"1998/10/25",18.2,19.6,17.0
"1998/10/26",18.2,18.6,17.8
"1998/10/27",17.4,17.8,17.0
"1998/10/28",18.0,19.7,16.6
"1998/10/29",17.8,18.1,17.4
"1998/10/30",18.5,20.5,17.6
"1998/10/31",19.0,20.5,18.2
"1998/11/01",18.0,18.3,17.8
"1998/11/02",17.4,17.8,17.1
"1998/11/03",17.4,18.7,16.8
"1998/11/04",17.6,18.5,17.1
"1998/11/05",17.4,18.1,16.9
"1998/11/06",16.3,16.9,15.8
"1998/11/07",15.3,15.8,15.0
"1998/11/08",15.6,16.5,14.7
"1998/11/09",15.7,16.4,15.3
"1998/11/10",15.3,15.6,15.0
"1998/11/11",14.9,15.0,14.7
"1998/11/12",14.3,14.7,13.7
"1998/11/13",14.3,15.2,13.5
"1998/11/14",14.5,15.5,13.7
"1998/11/15",15.1,16.3,14.3
"1998/11/16",14.6,15.3,14.1
"1998/11/17",14.6,15.0,13.8
"1998/11/18",14.3,15.5,13.6
"1998/11/19",13.5,14.0,13.0
"1998/11/20",13.3,14.9,12.6
"1998/11/21",12.9,14.2,12.2
"1998/11/22",12.1,12.5,11.8
"1998/11/23",11.7,11.9,11.4
"1998/11/24",11.5,11.9,10.8
"1998/11/25",11.5,12.4,11.0
"1998/11/26",11.4,12.5,10.9
"1998/11/27",11.3,11.8,10.8
"1998/11/28",11.5,13.3,10.9
"1998/11/29",10.9,11.4,10.6
"1998/11/30",11.0,11.5,10.5
"1998/12/01",11.3,12.3,10.7
"1998/12/02",10.7,11.0,10.1
"1998/12/03", 9.5,10.1, 9.1
"1998/12/04", 9.0, 9.2, 8.9
"1998/12/05", 8.8, 8.9, 8.6
"1998/12/06", 9.0, 9.3, 8.6
"1998/12/07", 8.9, 9.1, 8.6
"1998/12/08", 9.1, 9.3, 8.8
"1998/12/09", 9.0, 9.3, 8.9
"1998/12/10", 8.7, 8.9, 8.4
"1998/12/11", 8.3, 8.7, 7.8
"1998/12/12", 8.2, 8.7, 7.3
"1998/12/13", 8.2, 8.6, 7.7
"1998/12/14", 8.3, 9.2, 7.7
"1998/12/15", 8.4, 9.4, 7.8
"1998/12/16", 8.4, 8.8, 8.0
"1998/12/17", 8.2, 8.7, 7.7
"1998/12/18", 8.2, 8.7, 7.9
"1998/12/19", 8.4, 9.0, 7.7
"1998/12/20", 8.0, 8.7, 6.9
"1998/12/21", 7.5, 8.1, 6.9
"1998/12/22", 7.2, 7.5, 6.8
"1998/12/23", 7.4, 8.1, 6.8
"1998/12/24", 7.6, 7.9, 7.3
"1998/12/25", 7.3, 8.0, 7.0
"1998/12/26", 7.3, 7.8, 7.1
"1998/12/27", 7.1, 7.5, 6.4
"1998/12/28", 7.3, 8.0, 6.7
"1998/12/29", 7.5, 8.2, 6.9
"1998/12/30", 7.3, 8.0, 6.7
"1998/12/31", 7.2, 7.8, 6.8
